This is the latest recevied weather packets stored in our database for station/object DH9SB-6. If no packets are shown the sender has not sent any weather packets the latest 10 day(s).
| Time | Temp. | Humidity | Pressure | Rain* | Wind** | Luminosity | Snow |
|---|---|---|---|---|---|---|---|
| 1777617181 | 12.22° C | 38% | - | 0 mm | - | - | - |
| 1777616559 | 11.67° C | 39% | - | 0 mm | - | - | - |
| 1777615982 | 11.11° C | 38% | - | 0 mm | - | - | - |
| 1777614783 | 10.56° C | 40% | - | 0 mm | - | - | - |
| 1777614158 | 10° C | 40% | - | 0 mm | - | - | - |
| 1777612957 | 8.89° C | 40% | - | 0 mm | - | - | - |
| 1777612381 | 8.89° C | 40% | - | 0 mm | - | - | - |
| 1777611758 | 8.33° C | 41% | - | 0 mm | - | - | - |
| 1777611181 | 7.78° C | 42% | - | 0 mm | - | - | - |
| 1777609981 | 7.22° C | 44% | - | 0 mm | - | - | - |
| 1777609357 | 7.22° C | 48% | - | 0 mm | - | - | - |
| 1777608830 | 7.22° C | 48% | - | 0 mm | - | - | - |
| 1777608158 | 7.22° C | 48% | - | 0 mm | - | - | - |
| 1777607581 | 7.22° C | 49% | - | 0 mm | - | - | - |
| 1777607006 | 7.22° C | 48% | - | 0 mm | - | - | - |
| 1777606381 | 7.22° C | 48% | - | 0 mm | - | - | - |
| 1777605761 | 7.22° C | 48% | - | 0 mm | - | - | - |
| 1777605182 | 7.22° C | 47% | - | 0 mm | - | - | - |
| 1777604557 | 7.78° C | 41% | - | 0 mm | - | - | - |
| 1777603982 | 7.78° C | 41% | - | 0 mm | - | - | - |
| 1777603358 | 7.78° C | 40% | - | 0 mm | - | - | - |
| 1777602782 | 8.33° C | 40% | - | 0 mm | - | - | - |
| 1777602158 | 8.33° C | 40% | - | 0 mm | - | - | - |
| 1777601581 | 8.33° C | 40% | - | 0 mm | - | - | - |
| 1777600957 | 8.33° C | 40% | - | 0 mm | - | - | - |
* Rain latest hour (hover to see other rain measurements)
** Current wind speed in m/s (hover to see current wind gust speed)